"Pseudo-MPEC" for P10OQt5

Created 2019 Jun 17 16:07:42 UT using Find_Orb

Click here for an explanation of pseudo-MPECs

 
 Astrometry: 
     P10OQt5  C2019 05 31.@%;4__Ym1[%^C#a-GuEi5AstrometrywD^D3l2B3k7!*v4QboVFF51
     P10OQt5  C2019 05 3193a4gvZWeW!IUq]G]Y4Np53GJd/su/f.qgC^=#o(4J,iBCjY%.LnF51
     P10OQt5  C2019 05 31usr_(redacted;lZ8XicEf!CqEWA+=NDw*#_VrZPjs26T$owgn=iF51
     P10OQt5  C2019 06 081`:Vq5;qSCo*Msi)k#35vL*$A'F5xi^)0UKKnv/Aox%:Ul),lU6KF51
     P10OQt5  C2019 06 08Prq@p:@/CQd;VEAKuPFj)%^8LgDw[C'-:GW.Bf+M+!)PB.KL/oUhF51
     P10OQt5  C2019 06 08Sn:t8YqMS4qlYvXe#cfam.orZXgjGt^aoPt@XwslHN^'$qF(42i(F51
     P10OQt5  C2019 06 08t8/qBy7YeAT,y+YF-a^hfU5njG]LvO+FH*euRP,6p7Jx1fw0!ET#F51
     P10OQt5  C2019 06 08\y2,*2UhQtc)JYi;OZekXvlDNVs0W06VBv:T+(_%EB*$1ETE0E#`F51
     P10OQt5 pC2019 06 09khGV13L!inx]]ecd^GhJlBoVBMpg)_i_Ur'V;OTxQk=m.',UoV!lL01
     P10OQt5 pC2019 06 09%Wh,(U5AxtvSF#/;R=9].V+=77L-GNS_u3g*Hb)w^\C;E_GbR_JcL01
     P10OQt5 KC2019 06 09jA[na\B:b[5u#txe#u$9?^WA0Jspls+`5g\))qs%tmW`pRdcJ]G(L01
     P10OQt5  C2019 06 09.36109 15 40 51.20 +28 10 14.1    ~699M 21.6 GVNEOCPI52
     P10OQt5  C2019 06 09.36577 15 40 54.55 +28 09 58.8    ~699M       VNEOCPI52
     P10OQt5  C2019 06 09.37045 15 40 57.96 +28 09 43.9    ~699M       VNEOCPI52
     P10OQt5  C2019 06 09.37512 15 41 01.19 +28 09 28.6    ~699M       VNEOCPI52
     P10OQt5 KC2019 06 10$!l*K?Tql_1'G10?*i9wFSGx=d!1^Yf*d7IcXtw^B.n;l7TC].D5H21
     P10OQt5 KC2019 06 10%.8ZsP:_[$Q*v:FThxmd,;%SS4v6vu!)\#nP)Tm4*a49*2,ns!NLH21
     P10OQt5 KC2019 06 10TE8Q%9[CO8k%TO3c=QWGd=p7rDcM`?LRqQE,NOxsTRHB.e:L=KM[H21
     P10OQt5 KC2019 06 12hCr`A5g[Tm3%x3ebcTppV8$BR*9W2tE/l`Q''f5OTo'gZ.OxEnr^H21
     P10OQt5 KC2019 06 12Lnj1aHC[GR'a]biJRr$Gyk[a@Y#?'P#TDHe,J.Aq:IYxe=NMK5E3H21
     P10OQt5 KC2019 06 12ld;Bhogj4M:vne6qDh]jT(JsVusE@`7+!4MJUq^(14Pv%um9O8mXH21
     P10OQt5 KC2019 06 13bfh89g2Xq!lDLG;dOyZ#$\RKu'=h_U'rHn*HMJ?PApnpvG*y%fQQ734
     P10OQt5 KC2019 06 13a3n*LN9TaH+dOahI;j1f:.4Eam1mxMm1Ru$,ve/[O8v=a75Q#Vl1734
     P10OQt5 KC2019 06 13D7r7e6)E]nx2r^b8Gwg`s_GeNSh^yS(6%tlkdPjGDB3q'clickv/734
     P10OQt5  C2019 06 13.34289 16 39 16.27 +23 16 41.9    ~6D8q 20.2 GVNEOCPI52
     P10OQt5  C2019 06 13.34551 16 39 18.68 +23 16 24.8    ~6D8q 20.4 GVNEOCPI52
     P10OQt5  C2019 06 13.34676 16 39 19.86 +23 16 17.2    ~6D8q 19.9 GVNEOCPI52
     P10OQt5  C2019 06 13.34801 16 39 21.14 +23 16 08.7    ~6D8q 19.8 GVNEOCPI52
     P10OQt5 KC2019 06 14(sPBG5jfw.va_ff321wbDaD1X%-gb[=*\-NH%KV[Gqtg7-#*%(##H21
     P10OQt5 KC2019 06 14:5]GE\tO[$f:OvuQGp_Wrb5uD8x^N5`*ZBXd;mh'-qX]Y-urdm4(H21
     P10OQt5 KC2019 06 14/Kubc#wIaXFtherevagBO5T2l4?g,for]4Adq*ilexplanationlH21
     P10OQt5  C2019 06 15.21073 17 12 06.07 +19 36 48.2    ~6F67 21.1 GVNEOCPI52
     P10OQt5  C2019 06 15.21517 17 12 10.55 +19 36 13.7    ~6F67       VNEOCPI52
     P10OQt5  C2019 06 15.23484 17 12 30.92 +19 33 38.8    ~6F67       VNEOCPI52
     P10OQt5  C2019 06 15.23629 17 12 32.48 +19 33 27.5    ~6F67 21.0 GVNEOCPI52
     P10OQt5 KC2019 06 15.95317717 25 42.28 +17 52 45.7    ~6G0q 21.2 GVNEOCPJ95
     P10OQt5 KC2019 06 15.99208017 26 23.87 +17 47 08.3    ~6G0q 21.1 GVNEOCPJ95
     P10OQt5 KC2019 06 16.00886017 26 41.68 +17 44 41.7    ~6G0q 21.3 GVNEOCPJ95

Station data:
(734) Farpoint Observatory, Eskridge  (N38.890107 W96.001400)  US/Kansas.
   Observer G. Hug. 0.69-m reflector + CCD.
(F51) Pan-STARRS 1, Haleakala  (N20.707235 W156.255910)  US/Hawaii.
   Observers N. Primak, A. Schultz, S. Watters, J. Thiel, T. Goggia. Measurer
   PS1 Science Consortium. 1.8-m Ritchey-Chrétien + CCD.
(H21) Astronomical Research Observatory, Westfield  (N39.483057 W87.968270)
   US/Illinois. 0.76-m f/3.0 astrograph + CCD.
(I52) Steward Observatory, Mt. Lemmon Station  (N32.442547 W110.788920)
   US/Arizona.  Observers T. A. Pruyne, B. M. Africano, E. J. Christensen, G.
   A. Farneth, D. C. Fuls, A. R. Gibbs, A. D. Grauer, H. Groeller, J. A.
   Johnson, R. A. Kowalski, S. M. Larson, G. J. Leonard, R. L. Seaman, F. C.
   Shelly. 1.0-m reflector + CCD.
(J95) Great Shefford  (N51.474969 W1.447003)  UK.  Observer P. Birtwhistle.
   0.40-m f/6.0 Schmidt-Cassegrain + CCD.
(L01) Višnjan Observatory, Tičan  (N45.290900 E13.749300)  Croatia.
   Observers K. Korlević, E. Pettarin. Measurer E. Pettarin. 1.0-m f/2.9
   reflector + CCD.

Orbital elements:  P10OQt5
   Perihelion 2019 Jun 12.440025 +/- 0.00359 TT = 10:33:38 (JD 2458646.940025)
Epoch 2019 Jun 16.0 TT = JDT 2458650.5   Earth MOID: 0.0460   Ma: 0.0686
M   0.95986863 +/- 0.006            (J2000 ecliptic)          AutoNEOCP
n   0.26962794 +/- 0.00143          Peri.  159.50302 +/- 0.0027
a   2.37297289 +/- 0.00839          Node   100.51549 +/- 0.0045
e   0.5567034 +/- 0.00153           Incl.    6.14447 +/- 0.011
P   3.66                   H 25.5   G  0.15   U  8.3  
q 1.05193074 +/- 8.6e-5    Q 3.69401504 +/- 0.0168
From 38 observations 2019 May 31-June 16; mean residual 0".50
Residuals in arcseconds: 
190531 F51  .35+  .54-    190609 I52  .59+  .41-    190613 I52  .02+  .23+    
190531 F51  .25+  .22-    190609 I52  .86-  .74-    190613 I52  1.4+  .40-    
190531 F51  .17+  .32-    190610 H21  .57-  .00     190614 H21  .35+  .32-    
190608 F51  .10+  .17+    190610 H21  .56-  .10-    190614 H21  .20-  .22+    
190608 F51  .08+  .11+    190610 H21  .22-  .19-    190614 H21  .01+  .48+    
190608 F51  .41-  .26+    190612 H21  .24-  .48+    190615 I52  .37+  .14-    
190608 F51  .34-  .09+    190612 H21  .10-  .42+    190615 I52  1.2-  .14+    
190608 F51  .38-  .41+    190612 H21  .24+  .08+    190615 I52  .16-  .02-    
190609 L01  .22+  .04+    190613 734  .90+  .44+    190615 I52  .76+  .13+    
190609 L01  .00   .23+    190613 734  1.3+  .38+    190615 J95  .47-  .14-    
190609 L01  .57-  .51+    190613 734  1.6+  .77+    190615 J95  .68+  .11-    
190609 I52  .55-  .08-    190613 I52  .92+  .60+    190616 J95  .67-  .11-    
190609 I52  .33-  .47-    190613 I52  .03+  .03-    

Ephemerides (geocentric):
Date (UTC) HH   RA              Dec         delta   r     elong  mag " sig PA
---- -- -- --  -------------   -----------  ------ ------ -----  --- ---- ---
2019 06 17 16  17 57 56.709   +13 26 02.51  .04715 1.0540 143.0 20.4 .357 150
2019 06 17 17  17 58 44.104   +13 19 04.03  .04712 1.0540 143.1 20.4 .361 150
2019 06 17 18  17 59 31.495   +13 12 04.49  .04710 1.0540 143.2 20.4 .365 150
2019 06 17 19  18 00 18.883   +13 05 03.91  .04708 1.0541 143.3 20.4 .369 149
2019 06 17 20  18 01 06.266   +12 58 02.29  .04706 1.0541 143.4 20.4 .373 149
2019 06 17 21  18 01 53.641   +12 50 59.66  .04704 1.0541 143.5 20.4 .377 149
2019 06 17 22  18 02 41.010   +12 43 56.03  .04702 1.0542 143.6 20.4 .381 149
2019 06 17 23  18 03 28.368   +12 36 51.43  .04701 1.0542 143.7 20.4 .385 149
2019 06 18 00  18 04 15.717   +12 29 45.86  .04699 1.0542 143.8 20.4 .389 148
2019 06 18 01  18 05 03.055   +12 22 39.35  .04697 1.0543 143.9 20.4 .393 148
2019 06 18 02  18 05 50.379   +12 15 31.92  .04696 1.0543 144.0 20.4 .397 148
2019 06 18 03  18 06 37.690   +12 08 23.58  .04694 1.0543 144.1 20.4 .401 148
2019 06 18 04  18 07 24.986   +12 01 14.35  .04693 1.0544 144.1 20.4 .405 148
2019 06 18 05  18 08 12.265   +11 54 04.25  .04692 1.0544 144.2 20.4 .409 147
2019 06 18 06  18 08 59.527   +11 46 53.30  .04690 1.0544 144.3 20.4 .413 147
2019 06 18 07  18 09 46.770   +11 39 41.51  .04689 1.0545 144.4 20.4 .417 147
2019 06 18 08  18 10 33.993   +11 32 28.91  .04688 1.0545 144.5 20.4 .421 147
2019 06 18 09  18 11 21.195   +11 25 15.52  .04687 1.0545 144.6 20.4 .425 147
2019 06 18 10  18 12 08.375   +11 18 01.35  .04686 1.0546 144.7 20.4 .429 146
2019 06 18 11  18 12 55.532   +11 10 46.42  .04685 1.0546 144.8 20.4 .433 146
2019 06 18 12  18 13 42.663   +11 03 30.75  .04685 1.0547 144.9 20.4 .437 146
2019 06 18 13  18 14 29.769   +10 56 14.37  .04684 1.0547 145.0 20.4 .441 146
2019 06 18 14  18 15 16.848   +10 48 57.28  .04683 1.0547 145.0 20.4 .445 146
2019 06 18 15  18 16 03.899   +10 41 39.52  .04683 1.0548 145.1 20.4 .450 145
2019 06 18 16  18 16 50.920   +10 34 21.09  .04682 1.0548 145.2 20.4 .454 145
2019 06 18 17  18 17 37.911   +10 27 02.03  .04682 1.0548 145.3 20.4 .458 145
2019 06 18 18  18 18 24.870   +10 19 42.34  .04682 1.0549 145.4 20.4 .462 145
2019 06 18 19  18 19 11.796   +10 12 22.05  .04681 1.0549 145.5 20.4 .466 145
2019 06 18 20  18 19 58.688   +10 05 01.19  .04681 1.0550 145.6 20.4 .470 145
2019 06 18 21  18 20 45.545   +09 57 39.76  .04681 1.0550 145.6 20.4 .474 144
2019 06 18 22  18 21 32.366   +09 50 17.79  .04681 1.0550 145.7 20.4 .478 144
2019 06 18 23  18 22 19.149   +09 42 55.30  .04681 1.0551 145.8 20.4 .482 144
2019 06 19 00  18 23 05.893   +09 35 32.30  .04681 1.0551 145.9 20.4 .486 144
2019 06 19 01  18 23 52.598   +09 28 08.83  .04681 1.0552 146.0 20.4 .491 144
2019 06 19 02  18 24 39.262   +09 20 44.90  .04682 1.0552 146.0 20.4 .495 144
2019 06 19 03  18 25 25.884   +09 13 20.53  .04682 1.0552 146.1 20.4 .499 144
2019 06 19 04  18 26 12.463   +09 05 55.74  .04682 1.0553 146.2 20.4 .503 143
2019 06 19 05  18 26 58.998   +08 58 30.55  .04683 1.0553 146.3 20.3 .507 143
2019 06 19 06  18 27 45.487   +08 51 04.98  .04684 1.0554 146.4 20.3 .511 143
2019 06 19 07  18 28 31.930   +08 43 39.05  .04684 1.0554 146.4 20.3 .515 143
2019 06 19 08  18 29 18.326   +08 36 12.79  .04685 1.0555 146.5 20.3 .519 143
2019 06 19 09  18 30 04.673   +08 28 46.21  .04686 1.0555 146.6 20.3 .523 143
2019 06 19 10  18 30 50.971   +08 21 19.33  .04687 1.0555 146.7 20.3 .527 142
2019 06 19 11  18 31 37.217   +08 13 52.17  .04688 1.0556 146.7 20.3 .531 142
2019 06 19 12  18 32 23.412   +08 06 24.76  .04689 1.0556 146.8 20.3 .535 142
2019 06 19 13  18 33 09.555   +07 58 57.12  .04690 1.0557 146.9 20.3 .539 142
2019 06 19 14  18 33 55.643   +07 51 29.25  .04691 1.0557 146.9 20.3 .543 142
2019 06 19 15  18 34 41.677   +07 44 01.20  .04692 1.0558 147.0 20.3 .547 142